Погода в Бельтире

Россия / Республика Алтай     49°58′38″N   88°10′34″E
темп.,
°C
ветер,
м/с
пор.,
м/с
влажн.,
%
обл.,
%
осадки,
мм/ч
давл.,
гПа
погр.,
м
8 марта, пн
пн801:00−17ююз126726 0.0 102621
04:00−18ююв1168100 0.0 102620
07:00−19ююв117091 0.0 102620
10:00−14вюв227476 0.0 102358
13:00−10вюв227448 0.0 1018152
16:00−7вюв237219 0.0 1016195
19:00−12ю127835 0.0 101822
22:00−12ююз2278100 0.0 102124
9 марта, вт
вт901:00−13ю228096 0.0 102324
04:00−14юз228079 0.0 102529
07:00−15ююз228051 0.0 102726
10:00−11юв12826 0.0 1027102
13:00−8юв25763 0.0 1024639
16:00−7юв147617 0.0 1023619
19:00−13юз227810 0.0 102621
22:00−15юз23690 0.0 102823
10 марта, ср
ср1001:00−17юз22690 0.0 102921
04:00−19ю12720 0.0 102921
07:00−20ююв11750 0.0 103020
10:00−15вюв22780 0.0 102677
13:00−12вюв227915 0.0 1021168
16:00−10вюв228022 0.0 1018169
19:00−15ююв117610 0.0 102021
22:00−15ю12650 0.0 102321
11 марта, чт
чт1101:00−16ююв127030 0.0 102222
04:00−16юв127772 0.0 102123
07:00−17ююв128285 0.0 102125
10:00−12вюв238741 0.0 101799
13:00−8вюв338756 0.0 1012204
16:00−5в238285 0.0 1008260
19:00−7ю127278 0.0 101123
22:00−7зюз4677100 0.1 1016128
12 марта, пт
пт1201:00−7зюз5973100 0.1 1021193
04:00−14зюз446845 0.1 102549
07:00−17зюз236523 0.1 102836
10:00−12юв227312 0.0 1025156
13:00−8ююв28657 0.0 1019811
16:00−5ююз3116110 0.0 10161231
19:00−11ююз235652 0.0 101731
22:00−12зюз235747 0.0 101943